Погода в Зиндере

Нигер     13°48′26″N   8°59′12″E
темп.,
°C
ветер,
м/с
пор.,
м/с
влажн.,
%
обл.,
%
осадки,
мм/ч
давл.,
гПа
погр.,
м
6 марта, сб
сб601:00+23всв58100 0.0 1012143
04:00+21всв471278 0.0 1012107
07:00+20всв5101485 0.0 1013163
10:00+30всв79880 0.0 1015589
13:00+36всв67587 0.0 10121360
16:00+37всв66663 0.0 10091932
19:00+29св56743 0.0 101068
22:00+26св51060 0.0 1013162
7 марта, вс
вс701:00+24св5960 0.0 1012161
04:00+22св5960 0.0 1011162
07:00+21всв5890 0.0 1013146
10:00+32всв810512 0.0 1014847
13:00+37всв88310 0.0 10111719
16:00+37всв77418 0.0 10082234
19:00+30всв56549 0.0 100966
22:00+26св56668 0.0 101186
8 марта, пн
пн801:00+24всв46746 0.0 101087
04:00+22всв4572 0.0 100953
07:00+21всв45816 0.0 101052
10:00+32в6951 0.0 1012665
13:00+37в66440 0.0 10081828
16:00+38в55488 0.0 10062391
19:00+29всв45644 0.0 100726
22:00+27всв4670 0.0 100959
9 марта, вт
вт901:00+24св4572 0.0 100861
04:00+23всв4670 0.0 100778
07:00+22всв45713 0.0 100986
10:00+33в68425 0.0 1010616
13:00+37вюв44417 0.0 10072155
16:00+38в45472 0.0 10042748
19:00+28вюв24736 0.0 100524
22:00+27всв4580 0.0 100825
10 марта, ср
ср1001:00+25всв4580 0.0 100747
04:00+24всв4580 0.0 100760
07:00+23всв4570 0.0 100867
10:00+34в6840 0.0 1010554
13:00+39в5430 0.0 10061932
16:00+40в3340 0.0 10033065
19:00+30в3470 0.0 100424
22:00+28всв3470 0.0 100624